Weather History for Oshkosh, WI

Change the Weather History Date:

Saturday, June 16, 2012

  Actual Average Record
Temperature  
Mean Temperature 74 °F -  
Max Temperature 82 °F 74 °F 90 °F (2006)
Min Temperature 66 °F 54 °F 38 °F (1964)
Cooling Degree Days 9    
Growing Degree Days 24 (Base 50)    
Moisture  
Dew Point 61 °F    
Average Humidity 64    
Maximum Humidity 82    
Minimum Humidity 42    
Precipitation  
Precipitation 0.08 in - - ()
Sea Level Pressure  
Sea Level Pressure 29.89 in    
Wind  
Wind Speed 5 mph (South)    
Max Wind Speed 21 mph    
Max Gust Speed 28 mph    
Visibility 10 miles    
Events Rain    
Averages and records for this station are not official NWS values.
T = Trace of Precipitation, MM = Missing Value Source: NWS Daily Summary

Daily Weather History Graph

Daily Weather History Graph

Search for Another Location

Airport:

Trip Planner

Search our weather history database for the weather conditions in past years. The results will help you decide how hot, cold, wet, or windy it might be!

Date:

Astronomy

Jun. 16, 2012 Rise Set
Actual Time 5:10 AM CDT 8:39 PM CDT
Civil Twilight 4:34 AM CDT 9:15 PM CDT
Nautical Twilight 3:46 AM CDT 10:03 PM CDT
Astronomical Twilight 2:46 AM CDT 11:04 PM CDT
Moon 3:03 AM CDT (6/16) 6:12 PM CDT (6/16)
Length of Visible Light 16h 41m
Length of Day
15h 28m
Waning Crescent, 8% of the Moon is Illuminated
Jun 16
Waning Crescent
Jun 19
New
Jun 26
First Quarter
Jul 3
Full
Jul 10
Last Quarter

Hourly Weather History & Observations

Time (CDT) Temp. Heat Index Dew Point Humidity Pressure Visibility Wind Dir Wind Speed Gust Speed Precip Events Conditions
12:53 AM 66.9 °F - 52.0 °F 59% 29.99 in 10.0 mi Calm Calm - N/A   Clear
1:53 AM 69.1 °F - 51.1 °F 53% 29.97 in 10.0 mi Calm Calm - N/A   Clear
2:53 AM 66.9 °F - 53.1 °F 61% 29.97 in 10.0 mi Calm Calm - N/A   Clear
3:53 AM 66.9 °F - 54.0 °F 63% 29.98 in 10.0 mi Calm Calm - N/A   Clear
4:53 AM 68.0 °F - 59.0 °F 73% 29.98 in 10.0 mi East 4.6 mph - N/A   Clear
5:53 AM 69.1 °F - 57.9 °F 68% 29.97 in 10.0 mi ESE 3.5 mph - N/A   Clear
6:53 AM 70.0 °F - 55.9 °F 61% 29.97 in 10.0 mi ESE 6.9 mph - N/A   Clear
7:53 AM 72.0 °F - 57.0 °F 59% 29.96 in 10.0 mi ESE 8.1 mph - N/A   Clear
8:53 AM 75.0 °F - 55.9 °F 51% 29.93 in 10.0 mi SSE 10.4 mph - N/A   Clear
9:53 AM 82.9 °F 82.6 °F 57.9 °F 42% 29.93 in 10.0 mi South 13.8 mph 20.7 mph N/A   Clear
10:53 AM 81.0 °F 81.3 °F 59.0 °F 47% 29.92 in 10.0 mi South 12.7 mph - N/A   Mostly Cloudy
11:27 AM 73.4 °F - 64.4 °F 73% 29.96 in 2.5 mi South 6.9 mph 24.2 mph 0.05 in Rain Light Rain
11:34 AM 73.4 °F - 66.2 °F 78% 29.96 in 10.0 mi South 8.1 mph - 0.05 in   Overcast
11:53 AM 78.1 °F - 68.0 °F 71% 29.92 in 10.0 mi South 11.5 mph - 0.05 in   Mostly Cloudy
12:53 PM 77.0 °F - 64.9 °F 66% 29.90 in 10.0 mi South 20.7 mph 26.5 mph N/A   Overcast
1:53 PM 79.0 °F - 66.0 °F 64% 29.88 in 10.0 mi South 18.4 mph 27.6 mph N/A   Overcast
2:53 PM 80.1 °F 82.1 °F 66.0 °F 62% 29.85 in 10.0 mi South 11.5 mph - N/A   Scattered Clouds
3:53 PM 75.0 °F - 69.1 °F 82% 29.83 in 5.0 mi Calm Calm - 0.03 in Rain Light Rain
4:53 PM 80.1 °F 82.1 °F 66.0 °F 62% 29.81 in 10.0 mi SW 9.2 mph - 0.00 in   Mostly Cloudy
5:53 PM 79.0 °F - 68.0 °F 69% 29.79 in 10.0 mi WSW 5.8 mph - N/A   Overcast
6:53 PM 80.1 °F 82.1 °F 66.0 °F 62% 29.78 in 10.0 mi SW 4.6 mph - N/A   Clear
7:53 PM 78.1 °F - 66.0 °F 66% 29.76 in 10.0 mi SSW 5.8 mph - N/A   Clear
8:53 PM 77.0 °F - 64.9 °F 66% 29.75 in 10.0 mi SW 3.5 mph - N/A   Clear
9:53 PM 75.9 °F - 64.9 °F 69% 29.75 in 10.0 mi SW 4.6 mph - N/A   Clear
10:53 PM 78.1 °F - 64.0 °F 62% 29.77 in 10.0 mi Variable 6.9 mph - N/A   Clear
11:53 PM 71.1 °F - 60.1 °F 68% 29.79 in 10.0 mi West 10.4 mph - N/A   Clear